Regional Weather Roundup
Issued by NWS Memphis, TN

Home | Current Version | Previous Version | Text Only | Print | Product List | Glossary On
Versions: 1 2 3 4 5 6 7 8 9 10 11 12 13 14 15 16 17 18 19 20 21 22 23 24 25 26 27 28 29 30 31 32 33 34 35 36 37 38 39 40 41 42 43 44 45 46 47 48 49 50
000
ASUS44 KMEG 140110
RWRMEG
MEMPHIS CWA HOURLY WEATHER ROUNDUP
NATIONAL WEATHER SERVICE MEMPHIS TN
800 PM CDT SUN JUL 13 2014

...WEST TENNESSEE...

CITY           SKY/WX    TMP DP  RH WIND       PRES   REMARKS
MEMPHIS INTL   MOCLDY    88  74  63 SW3       29.99S HX  96
NWS MEMPHIS      N/A     89 N/A N/A MISG        N/A
JACKSON        CLEAR     84  75  74 SW3       29.99S HX  92
LEXINGTON      CLEAR     84  75  74 CALM      29.99S HX  92
SAVANNAH       CLEAR     82  79  91 CALM      30.01S HX  92
DYERSBURG      CLEAR     88  68  51 S3        29.98S HX  91
UNION CITY     CLEAR     86  73  66 SW7       29.95S HX  93
PARIS          CLEAR     82  73  74 S5        29.98S


...EASTERN ARKANSAS...

CITY           SKY/WX    TMP DP  RH WIND       PRES   REMARKS
JONESBORO      CLEAR     88  74  63 S8        29.96S HX  96
WEST MEMPHIS   PTCLDY    87  75  67 SW5       29.97S HX  96
BATESVILLE     CLEAR     88  75  66 S3        29.96S HX  97
NEWPORT        CLEAR     87  76  69 S9        29.97S HX  97
WALNUT RIDGE   CLEAR     88  70  55 S10       29.94S HX  92
BLYTHEVILLE    PTCLDY    87  73  62 S7        29.97S HX  94
SEARCY         CLEAR     87  77  72 SW5       29.97F HX  98
PINE BLUFF     LGT RAIN  89  72  56 CALM      29.98S HX  96
MONTICELLO     CLEAR     87  76  69 S3        29.99S HX  97


...NORTH MISSISSIPPI...

CITY           SKY/WX    TMP DP  RH WIND       PRES   REMARKS
TUPELO         CLEAR     85  72  65 CALM      30.00S HX  91
OLIVE BRANCH   MOCLDY    84  81  89 S6        30.00R HX  98
CLARKSDALE     CLEAR     86  73  66 CALM      30.00R HX  93
CORINTH        CLEAR     84  73  70 SW3       30.00S HX  91
GRENADA        PTCLDY    86  72  62 CALM      30.00S HX  92
GREENWOOD      PTCLDY    85  77  77 S5        30.00S HX  95
COLUMBUS       PTCLDY    85  77  76 S2        30.01S HX  95
STARKVILLE     FAIR      81  75  83 CALM      30.01S


...SOUTHEAST MISSOURI...

CITY           SKY/WX    TMP DP  RH WIND       PRES   REMARKS
DONIPHAN         N/A     86  75  69 S3          N/A  HX  95
WEST PLAINS    PTCLDY    83  71  67 S6        29.98F
POPLAR BLUFF   CLEAR     85  73  67 SW5       29.93S HX  91
CAPE GIRARDEAU PTCLDY    86  74  67 SW7       29.92F HX  94


...NORTHWEST ALABAMA...

CITY           SKY/WX    TMP DP  RH WIND       PRES   REMARKS
MUSCLE SHOALS  PTCLDY    85  70  60 SW3       30.03R


...MIDDLE TENNESSEE...

CITY           SKY/WX    TMP DP  RH WIND       PRES   REMARKS
NASHVILLE      PTCLDY    87  71  58 SW3       29.99F HX  93
CLARKSVILLE    CLEAR     87  72  60 SW5       29.97S HX  93
DICKSON        CLEAR     84  73  70 SW7       30.00F HX  91
COLUMBIA       CLEAR     86  73  66 SW3       30.01R HX  93
LEWISBURG      PTCLDY    86  70  58 SW5       30.01S HX  90


...WESTERN KENTUCKY...

CITY           SKY/WX    TMP DP  RH WIND       PRES   REMARKS
PADUCAH        CLEAR     88  73  61 SW7       29.93S HX  95
FORT CAMPBELL  CLEAR     86  73  66 SW9       29.97S HX  93


...CENTRAL ARKANSAS...

CITY           SKY/WX    TMP DP  RH WIND       PRES   REMARKS
LITTLE ROCK    PTCLDY    87  70  56 S6        29.97S HX  92


SKY/WX REPORTED AS FAIR MEANS FEW OR NO CLOUDS BELOW
12 THOUSAND FEET.




USA.gov is the U.S. government's official web portal to all federal, state and local government web resources and services.